Location: Aubrey
(33.1990°N, 85.1361°W)
Time: 00:58:47
(UTC+00:00)

X-37B - Pass Details

Date: 24 September 2021
Orbit: 385 x 389 km, 45.0° (Epoch: 13 October)

Event Time Altitude Azimuth Distance (km) Brightness Sun altitude
Exits shadow 09:13:29 12° 41° (NE) 1,295 3.9 -28.9°
Drops below altitude 10° 09:13:47 10° 43° (NE) 1,411 4.2 -28.8°
Sets 09:15:56 0° 51° (NE) 2,268 5.5 -28.4°
